Tracking 28920 objects as of 26-May-2024
HD Live streaming from Space Station
objects crossing your sky now

WSF-M

Track WSF-M now!
10-day predictions
WSF-M is classified as:


NORAD ID: 59481
Int'l Code: 2024-070A
Perigee: 827.7 km
Apogee: 834.0 km
Inclination: 98.7 °
Period: 101.4 minutes
Semi major axis: 7201 km
RCS: Unknown
Launch date: April 11, 2024
Source: United States (US)
Launch site: AIR FORCE WESTERN TEST RANGE (AFWTR)
Your satellite tracking list
Your tracking list is empty




NASA's NSSDC Master Catalog

Two Line Element Set (TLE):
1 59481U 24070A   24147.58454685  .00000122  00000-0  77178-4 0  9992
2 59481  98.7182 154.7379 0004341 343.1395  16.9637 14.20480843  6383
Source of the keplerian elements: AFSPC